Location: Waco, TX
(31.5480°N, 97.1670°W)
Time: 19:46:38
(UTC-06:00)

ISS - Pass Details

Date: 11 January 2018
Orbit: 402 x 407 km, 51.6° (Epoch: 18 January)

Event Time Altitude Azimuth Distance (km) Brightness Sun altitude
Rises 22:59:23 0° 190° (S) 2,295 - -66.1°
Reaches altitude 10° 23:01:58 10° 168° (SSE) 1,442 - -66.7°
Maximum altitude 23:04:04 16° 127° (SE) 1,126 - -67.1°
Drops below altitude 10° 23:06:12 10° 86° (E) 1,450 - -67.5°
Sets 23:08:48 0° 64° (ENE) 2,313 - -68.0°
